ECMWFNIL_700_spd_198.txt.gz
Wind_Speed
30 31 32 33 34 35 36 37 38 39 41 42 42 43 44 45 46 47 48 49 50 51 51 51 52 52 52 52 52 52 52 52 52 52 52 52 52 52 52 51 51 52
32 33 34 35 37 38 40 41 42 44 45 46 48 49 50 51 52 53 54 55 56 56 56 56 56 56 56 56 56 56 56 56 56 56 56 56 55 55 55 54 54 54
35 36 37 39 41 43 44 46 47 49 50 51 52 53 55 56 56 57 58 59 59 59 59 59 59 59 59 59 59 59 59 59 59 59 59 59 59 58 58 57 57 57
38 40 42 43 45 47 48 50 51 53 54 55 55 56 57 57 57 57 58 58 59 59 59 60 60 60 61 61 61 61 61 61 61 61 61 61 61 61 60 60 60 59
42 44 45 47 49 50 51 53 54 55 55 56 56 57 57 57 57 57 58 58 58 59 59 60 60 60 61 61 62 62 63 63 63 63 64 63 63 63 62 62 62 61
45 46 48 49 50 51 52 53 54 55 55 56 56 56 56 57 57 58 58 58 59 59 59 60 60 60 61 61 62 62 63 63 64 64 65 65 65 65 64 64 64 63
48 49 49 50 50 51 52 52 53 54 54 55 55 56 56 57 57 58 58 58 59 59 59 60 60 60 61 61 62 62 63 63 64 64 65 65 65 66 66 66 66 66
49 50 50 50 51 52 52 53 53 54 54 54 55 55 56 56 57 57 58 58 59 59 60 60 61 61 61 62 62 62 63 63 63 64 65 65 66 66 66 67 67 67
48 48 49 50 50 51 52 53 53 54 55 55 56 56 57 57 58 58 59 59 60 61 61 62 62 62 63 63 64 64 63 63 63 64 64 64 65 66 66 67 68 68
46 47 48 48 49 50 51 52 53 54 55 56 57 58 59 59 60 60 61 61 62 62 62 62 63 63 64 64 64 65 65 65 65 65 65 65 65 65 66 66 67 68
47 47 48 48 49 50 51 52 53 54 55 56 57 58 58 59 60 60 61 61 62 62 63 63 63 64 64 64 64 65 65 65 66 66 66 66 66 66 66 66 66 67
47 48 49 50 50 51 52 53 53 54 55 55 56 57 57 58 59 59 60 61 61 62 62 63 63 64 64 65 65 65 65 65 65 65 66 66 65 65 65 65 66 66
48 49 50 51 52 52 53 54 54 55 55 56 56 57 57 58 59 59 60 60 61 62 62 63 63 63 64 64 65 65 65 65 65 65 65 65 65 64 64 64 63 63
48 50 51 52 53 53 54 55 55 56 56 57 57 58 58 59 59 60 60 60 61 61 61 62 62 62 62 63 64 64 64 64 64 64 64 64 64 63 62 62 61 59
51 52 53 53 54 54 54 54 55 55 55 56 57 57 58 59 59 60 60 60 60 60 60 60 60 59 60 60 61 62 62 63 62 62 62 61 61 61 60 59 58 56
52 52 52 52 52 51 51 51 51 52 52 53 54 54 55 56 57 58 59 59 60 59 59 58 57 56 56 56 56 57 57 58 59 58 58 57 57 58 57 55 54 53
49 49 49 49 49 49 49 49 50 50 51 51 52 52 53 54 54 55 56 57 57 57 57 56 54 53 52 52 51 51 51 52 53 53 52 52 52 53 53 52 51 50
48 49 49 49 49 50 50 51 51 51 52 52 52 52 52 52 52 52 52 53 53 53 53 52 51 50 49 49 48 47 47 48 49 49 48 48 48 48 48 48 48 48
49 50 50 51 51 51 52 52 53 53 53 53 53 53 52 51 51 50 49 49 49 49 48 48 48 47 46 46 46 45 45 45 45 45 45 45 45 45 44 44 45 46
50 51 51 51 52 52 52 52 53 53 53 53 53 52 51 50 49 48 47 46 46 46 46 45 45 45 45 45 45 45 44 44 44 44 44 44 44 44 43 42 43 44
50 51 51 51 51 52 52 52 52 52 51 51 50 49 48 47 46 46 45 45 45 45 45 44 44 44 44 44 44 44 44 44 44 44 44 43 44 44 44 43 43 43
50 51 51 51 51 51 51 51 50 50 50 49 48 46 45 44 44 44 44 44 44 45 45 44 43 43 43 43 43 43 43 44 44 44 44 44 43 43 43 44 44 44
51 51 51 51 51 51 51 50 49 48 48 47 45 44 43 43 43 43 44 45 45 45 45 44 43 42 42 42 42 42 43 43 44 44 44 44 44 43 43 43 43 44
51 51 51 51 51 51 50 49 47 46 45 44 44 43 43 43 44 44 44 45 45 45 45 45 44 43 42 42 42 42 42 43 44 44 45 45 44 44 44 43 43 43
50 50 50 50 50 49 48 46 45 44 43 43 44 44 44 44 45 45 45 45 46 46 45 45 45 43 43 42 42 41 42 42 43 44 45 45 45 44 44 43 43 42
48 48 48 48 48 47 46 44 44 44 44 44 44 45 46 46 46 47 46 46 46 46 46 46 45 44 43 42 42 41 41 42 43 44 45 46 46 45 44 43 42 42

ECMWFNIL_700_spd_204.txt.gz
Wind_Speed
20 21 23 24 26 27 29 30 32 33 35 35 36 37 38 39 39 40 41 42 42 43 43 44 44 44 45 46 46 47 47 48 49 49 50 51 52 53 54 55 55 56
23 24 25 27 28 30 31 32 33 34 35 36 36 37 38 39 39 40 40 40 41 42 42 42 43 43 44 45 45 46 47 48 49 49 50 51 52 53 54 54 55 56
25 26 27 29 30 31 32 33 33 34 35 36 36 37 37 38 39 39 40 40 40 41 41 42 42 43 44 45 46 47 48 49 50 51 52 53 54 55 56 57 57 58
26 27 28 29 30 31 32 33 33 34 35 36 36 37 37 38 38 38 38 39 39 40 40 41 42 42 43 44 46 47 48 50 51 52 53 54 55 56 57 58 59 60
27 28 29 30 30 31 32 33 33 34 35 35 36 36 36 36 37 37 37 38 38 39 40 40 41 43 44 45 47 49 50 51 52 53 54 55 55 56 57 57 58 59
29 29 30 31 31 32 33 33 34 34 34 35 35 36 36 36 37 38 38 39 39 40 41 42 44 45 47 49 50 51 53 54 55 56 56 57 57 58 58 59 60 61
30 30 31 32 32 32 33 33 34 34 35 35 36 36 37 37 38 39 39 40 40 41 43 44 45 47 48 49 50 51 52 54 55 55 56 57 57 58 59 60 61 62
31 31 31 32 32 33 33 33 34 34 35 36 37 37 38 38 39 39 39 40 41 42 43 44 45 46 47 47 48 49 50 51 52 53 54 55 55 56 57 59 60 61
31 31 32 32 33 33 33 34 35 36 37 37 38 39 39 39 40 40 41 42 42 43 44 44 44 45 46 47 47 49 49 50 51 52 53 54 55 56 57 58 59 61
31 32 32 33 33 34 35 35 36 37 38 39 39 40 40 40 41 42 43 43 44 44 44 44 45 45 46 47 48 49 50 51 51 52 53 54 55 56 57 58 59 60
32 32 33 34 34 35 36 37 38 39 39 40 40 40 41 42 43 44 44 45 45 45 45 46 46 47 48 49 49 50 51 52 53 53 54 55 56 56 57 57 58 58
32 33 33 34 35 36 37 38 38 39 39 40 41 41 42 43 44 45 45 46 46 46 47 47 48 49 50 50 51 51 52 52 53 54 55 56 56 56 56 57 57 57
33 33 34 35 35 36 37 38 38 39 39 40 41 42 43 44 45 45 46 46 47 47 48 48 49 50 51 51 52 52 52 53 53 54 55 55 56 55 55 56 56 56
33 34 34 35 36 36 37 38 38 39 40 41 42 43 44 45 45 46 46 47 47 48 48 49 50 51 51 51 51 51 51 52 52 53 54 55 55 55 54 55 54 54
33 34 35 36 36 37 37 38 38 39 40 41 43 44 45 46 46 47 47 48 48 48 48 49 49 50 50 50 50 50 50 51 52 53 54 54 54 54 53 53 53 53
34 35 36 36 37 37 37 38 39 40 41 42 43 44 45 46 47 47 48 48 48 48 47 47 48 48 48 48 48 48 49 50 52 52 53 53 53 52 52 51 51 51
35 36 37 37 37 38 38 39 40 41 42 43 44 45 46 46 47 47 47 48 48 47 47 46 46 46 46 46 46 46 47 49 50 51 51 51 51 51 50 50 50 50
37 37 37 38 38 38 38 39 40 41 43 43 44 45 45 46 46 47 47 47 47 47 46 45 45 45 44 44 44 44 46 48 49 50 50 50 50 50 50 50 50 50
37 38 38 38 38 38 39 40 41 42 43 44 45 45 46 46 47 47 47 47 47 46 45 44 43 43 43 43 43 44 45 48 49 49 49 49 49 49 49 50 50 51
38 38 37 38 38 38 39 40 42 43 44 45 45 46 47 47 47 47 47 46 46 45 44 43 42 42 42 42 43 44 46 48 49 49 48 49 49 49 49 49 50 50
38 38 38 38 38 39 40 41 43 44 45 46 46 47 47 48 48 47 47 46 45 44 43 42 41 41 42 43 44 45 47 48 48 48 48 48 48 48 49 49 49 49
38 38 38 38 39 40 41 42 43 45 46 46 47 47 47 48 48 47 46 45 45 44 43 42 41 41 42 43 45 46 47 48 47 47 47 47 47 48 48 49 49 50
38 38 39 39 40 41 41 42 44 45 46 47 47 47 47 47 47 47 46 45 45 44 43 42 41 41 43 44 45 46 47 47 47 47 47 47 47 48 49 49 50 50
38 39 39 40 41 41 42 43 44 46 47 47 47 47 47 47 47 47 46 45 45 44 44 43 42 42 44 45 45 45 46 47 47 47 48 48 48 49 49 50 50 50
38 39 40 41 42 42 43 44 45 46 47 47 48 48 48 47 47 47 46 44 44 43 43 43 43 43 44 45 45 45 46 47 48 48 48 48 49 50 50 51 51 51
39 40 41 42 42 43 43 44 45 46 47 47 48 48 48 47 47 47 46 44 43 43 43 43 44 44 44 44 44 44 46 47 48 49 49 49 50 51 51 52 52 52

ECMWFNIL_700_spd_210.txt.gz
Wind_Speed
19 20 21 21 22 22 22 23 23 23 23 24 25 25 26 26 27 27 27 28 28 28 28 29 29 29 29 29 30 31 33 34 36 38 39 41 42 43 45 46 46 47
21 21 21 22 22 22 22 22 23 23 24 24 25 25 26 26 27 27 27 27 27 28 28 28 28 29 29 30 32 33 35 37 38 39 41 42 43 44 45 46 47 47
21 21 21 21 22 22 22 22 23 23 24 24 25 25 26 26 26 27 27 27 28 28 28 29 29 30 31 33 34 35 37 38 39 40 42 43 44 45 46 46 47 48
21 21 21 21 22 22 22 22 23 23 24 24 25 25 26 26 27 27 28 28 29 29 30 30 31 32 33 34 36 37 38 40 41 42 43 44 45 46 47 47 48 49
21 21 21 22 22 22 22 23 23 24 24 25 25 25 26 27 27 28 29 29 29 30 30 31 32 33 34 36 37 38 40 41 42 43 44 45 46 46 47 47 48 48
22 22 22 23 23 23 23 23 24 24 24 25 25 26 27 28 28 29 29 30 30 31 31 32 33 34 35 37 38 39 40 42 43 44 45 45 46 47 47 47 47 47
23 23 23 23 23 23 23 24 24 24 25 26 26 27 28 29 29 29 30 30 31 31 32 33 34 35 36 38 39 41 42 43 44 45 45 45 46 46 46 46 46 46
24 24 23 23 23 24 24 25 25 26 26 27 27 28 29 29 29 30 30 30 31 32 33 34 35 36 38 39 41 43 44 45 45 45 45 45 45 45 44 44 44 44
24 24 24 24 25 25 25 25 26 26 27 27 28 29 29 30 30 30 31 31 32 33 34 36 37 39 41 42 43 44 45 45 45 45 44 44 44 44 43 44 44 44
25 25 25 25 25 26 26 26 26 27 27 28 29 29 30 30 30 31 32 33 34 35 37 39 40 42 43 44 45 45 45 44 44 43 43 43 43 43 44 44 44 45
26 26 26 26 26 27 27 27 27 28 29 29 30 30 30 31 32 32 34 35 36 38 39 41 42 43 44 44 44 45 44 44 43 43 42 43 43 43 44 44 44 45
28 27 27 27 27 27 27 28 28 29 29 30 31 32 32 33 34 35 36 37 39 40 41 42 43 43 44 44 44 44 43 43 43 42 43 43 43 43 43 43 43 44
28 28 28 28 28 28 28 29 29 30 31 32 33 33 34 34 35 36 38 39 39 41 41 42 43 43 44 44 44 44 43 42 42 42 42 42 42 43 43 43 43 43
28 28 28 28 28 29 29 30 31 32 33 33 34 34 35 35 36 37 38 39 40 41 42 42 43 43 44 44 44 43 43 42 42 42 42 42 42 42 43 43 43 43
29 29 29 29 30 30 31 31 32 33 34 34 34 35 35 36 37 38 38 39 40 41 42 43 43 43 43 44 44 44 43 43 42 42 42 42 42 42 42 42 43 43
30 30 31 31 31 32 32 33 33 34 34 34 35 35 36 37 37 38 39 40 41 42 42 43 43 43 43 43 44 44 44 43 43 42 43 43 43 43 43 42 43 43
32 32 32 32 32 32 33 33 34 34 35 35 36 36 37 37 38 39 39 40 41 41 42 42 42 42 42 43 44 44 44 43 43 43 43 43 43 43 43 43 44 44
33 33 33 32 32 32 33 34 35 35 36 36 37 37 38 38 38 39 39 40 40 40 41 41 41 42 42 43 43 44 44 44 43 43 43 43 43 43 43 44 45 45
33 34 33 32 32 33 35 36 36 37 37 37 37 38 38 38 39 39 39 39 39 39 40 41 41 42 42 43 43 44 44 43 43 43 43 43 43 43 43 44 45 46
34 34 33 33 34 36 37 37 37 37 36 36 37 38 38 39 39 39 39 39 38 39 40 41 41 42 42 43 43 44 44 43 43 43 43 42 42 43 43 44 45 46
35 35 35 35 36 38 38 38 37 36 36 37 37 38 38 39 39 39 38 38 38 39 39 40 41 42 42 43 44 44 44 43 43 43 42 42 42 43 43 44 45 46
37 37 37 37 38 39 39 38 37 36 36 37 37 37 38 38 38 38 38 38 38 39 39 40 41 42 42 43 44 44 44 43 43 43 42 42 42 43 43 44 45 45
39 40 39 39 39 40 39 38 36 36 36 37 37 37 37 38 38 38 38 38 39 39 39 40 41 42 42 43 44 45 45 44 43 43 43 42 43 43 44 45 45 45
41 41 40 40 40 40 39 37 36 36 37 37 37 37 37 37 38 38 38 38 39 39 40 40 41 42 42 43 44 44 45 44 44 44 43 43 44 44 45 45 45 45
42 41 40 40 40 39 39 38 37 37 37 37 37 37 37 37 37 37 38 38 39 40 40 40 41 41 42 43 43 44 44 45 44 44 44 44 45 46 46 46 46 46
42 41 41 41 40 39 39 38 37 37 38 38 37 37 37 37 37 37 38 38 39 40 40 41 41 42 42 43 43 43 44 45 45 44 45 46 46 47 47 48 47 47

ECMWFNIL_700_spd_216.txt.gz
Wind_Speed
27 27 26 26 26 25 25 25 25 23 22 21 18 15 15 16 18 19 20 21 22 23 23 23 24 24 24 25 25 25 26 26 27 27 27 28 29 30 31 32 33 35
24 24 24 24 25 25 25 24 22 20 18 16 15 14 16 18 19 20 22 23 23 24 24 24 24 25 25 25 26 26 27 27 28 28 29 29 30 31 32 34 35 36
23 23 23 24 24 24 23 21 19 17 15 14 14 16 18 19 21 22 23 24 24 24 24 25 25 25 26 26 27 27 28 28 29 29 30 31 32 33 34 35 37 38
24 23 23 23 22 21 19 16 14 14 14 15 16 18 20 21 23 23 24 24 25 25 25 26 26 26 27 27 28 28 29 29 30 30 31 32 33 35 36 38 39 41
23 22 21 20 18 16 15 14 13 14 16 17 19 20 22 23 24 24 25 25 25 26 26 26 27 27 27 28 29 29 30 30 31 32 33 34 35 37 38 40 41 43
22 20 19 17 16 14 14 14 15 17 18 20 21 22 23 24 25 25 25 26 26 27 27 27 27 28 28 29 30 30 31 32 32 33 34 36 37 39 40 41 42 44
19 18 16 15 15 15 15 17 18 20 21 22 23 24 25 25 25 26 26 27 27 27 28 28 28 29 29 30 30 31 32 33 34 35 36 38 39 40 41 42 43 45
17 16 15 15 16 17 18 20 21 22 22 23 24 25 26 26 26 27 27 28 28 28 28 28 28 29 30 30 31 32 33 34 35 37 38 39 40 40 41 42 44 46
15 15 16 17 18 20 21 22 23 23 24 25 26 26 27 27 27 28 28 28 29 28 28 28 29 30 30 31 32 33 34 35 37 37 38 39 39 40 42 44 46 47
16 18 19 20 21 22 23 23 24 25 25 26 27 27 28 28 28 28 29 29 29 29 29 29 30 31 32 32 33 34 35 36 37 37 37 38 40 41 43 45 47 48
20 20 21 22 22 23 24 25 25 26 27 27 28 28 28 29 29 29 29 29 29 30 30 31 31 32 33 33 34 35 36 36 36 37 38 40 42 44 45 46 47 47
22 22 23 23 24 24 25 26 27 27 28 28 29 29 29 29 29 29 30 30 31 31 31 32 32 33 33 34 35 35 35 36 36 38 40 42 44 45 45 45 46 46
23 23 24 24 25 26 27 27 28 29 29 29 29 30 30 30 30 31 31 32 32 33 33 33 33 33 33 34 34 35 35 36 38 40 42 44 44 44 44 45 45 46
25 24 24 25 26 27 28 29 30 30 30 30 30 30 30 30 31 32 33 33 33 34 34 33 33 33 34 34 35 36 37 39 40 42 42 43 43 43 43 44 45 45
25 25 26 27 28 29 29 30 30 31 31 31 31 31 31 32 33 33 33 34 34 33 33 33 33 34 35 35 36 38 39 40 41 41 41 41 42 43 43 44 44 45
26 26 27 28 29 30 30 30 31 31 31 32 32 33 33 33 33 34 34 34 34 33 33 34 35 35 36 37 38 39 40 40 40 40 40 41 41 42 43 43 44 44
26 27 29 29 30 30 31 31 31 32 33 33 33 33 33 33 33 34 34 34 34 34 34 35 36 37 38 39 40 40 39 39 39 40 40 41 41 42 42 43 43 44
27 28 30 30 31 31 31 32 33 34 34 34 33 33 33 34 34 34 35 35 35 36 36 37 38 39 40 40 40 39 39 39 39 40 41 41 41 42 42 43 43 43
29 30 31 32 32 32 33 34 34 34 34 34 34 34 34 34 35 35 36 36 37 37 38 38 39 40 40 40 40 39 39 39 40 40 41 41 42 42 43 43 43 43
31 32 33 33 33 34 34 35 35 35 35 35 35 35 35 36 36 36 37 37 38 39 39 39 39 40 40 39 39 39 39 40 40 40 41 41 42 43 43 43 43 42
33 34 34 34 35 35 35 35 35 36 36 36 36 36 37 37 37 37 38 39 39 39 39 39 39 40 39 39 39 39 39 40 40 40 41 42 42 42 42 42 42 42
34 35 36 36 36 36 36 36 37 37 38 38 38 38 38 38 38 38 39 39 39 39 39 39 40 40 40 39 39 39 39 39 40 40 41 42 41 41 41 42 42 43
36 37 36 37 37 37 37 37 38 39 40 40 40 39 39 39 39 39 39 40 40 40 40 40 40 41 41 40 39 39 39 39 40 41 41 41 41 41 41 42 42 43
37 38 37 38 38 38 38 39 40 41 41 41 41 40 39 39 39 40 40 40 40 40 40 41 41 41 41 40 39 39 38 39 40 41 41 41 41 41 41 42 42 42
38 39 39 39 39 39 40 41 42 43 43 43 42 41 39 40 40 40 39 40 40 40 41 42 42 41 40 40 39 38 38 39 40 41 41 41 41 40 41 41 41 41
39 39 40 40 40 40 41 43 44 44 44 43 43 41 40 41 41 40 40 40 40 41 42 42 42 40 40 39 39 38 39 39 40 41 41 41 40 40 41 41 41 41